Regional Weather Roundup
Issued by NWS

Home | Current Version | Previous Version | Text Only | Print | Product List | Glossary On
Versions: 1 2 3 4 5 6 7 8 9 10 11 12 13 14 15 16 17 18 19 20 21 22 23 24 25 26 27 28 29 30 31 32 33 34 35 36 37 38 39 40 41 42 43 44 45 46 47 48 49 50
000
ASUS44 KFWD 102301
RWRTX
NORTH TEXAS HOURLY WEATHER ROUNDUP
NATIONAL WEATHER SERVICE FORT WORTH TX
500 PM CST SUN DEC 10 2017

NOTE: "FAIR" INDICATES FEW OR NO CLOUDS BELOW 12,000 FEET WITH NO
SIGNIFICANT WEATHER AND/OR OBSTRUCTIONS TO VISIBILITY.

TXZ118-119-110000-
DALLAS/FORT WORTH METROPLEX

CITY           SKY/WX    TMP DP  RH WIND       PRES   REMARKS
DFW AIRPORT    PTCLDY    70  17  13 SW8       30.28S
DALLAS LOVE    PTCLDY    69  21  16 W6        30.29S
FTW MEACHAM    CLEAR     70  18  13 W6        30.29S
DAL-EXECUTIVE  CLEAR     68  19  15 W6        30.29S
FTW-ALLIANCE   PTCLDY    69  15  12 W6        30.29S
FTW-NAS-JRB    PTCLDY    69  14  12 W7        30.30S
FTW-SPINKS     CLEAR     70  18  13 W6        30.32S
ARLINGTON      CLEAR     69  17  13 SW5       30.30S
GRAND PRAIRIE  CLEAR     70  18  13 SW7       30.31S
ADDISON        CLEAR     70  18  13 W7G13     30.29S
MESQUITE       CLEAR     66  19  16 SW9       30.30S
LANCASTER      CLEAR     68  19  15 W5        30.31S
$$

TXZ091>094-102>105-117-120-121-131>134-110000-
NORTH CENTRAL TEXAS

CITY           SKY/WX    TMP DP  RH WIND       PRES   REMARKS
SHRMAN/DENISON NOT AVBL
BOWIE          CLEAR     67  13  12 W6        30.30R
BRIDGEPORT     CLEAR     69  21  16 W6        30.31S
DECATUR        CLEAR     69  11  10 W5        30.28S
DENTON         CLEAR     68  19  15 W7        30.28S
MCKINNEY       CLEAR     67  19  16 SW8       30.28S
BONHAM         CLEAR     65  17  15 W6        30.26S
ROCKWALL       CLEAR     66  26  22 W7        30.29F
TERRELL        CLEAR     65  21  18 W7        30.29S
WAXAHACHIE     CLEAR     67  25  20 W3        30.32S
CLEBURNE       CLEAR     68  18  14 NW5       30.32F
GRANBURY       CLEAR     70  17  13 NW3       30.32S
$$

TXZ083>090-098>101-113>116-127>130-139>142-154-155-110000-
WESTERN NORTH TEXAS

CITY           SKY/WX    TMP DP  RH WIND       PRES   REMARKS
WICHITA FALLS  PTCLDY    67  14  13 W7        30.29R
WF-KICKAPOO    CLEAR     71  11  10 W7        30.31S
VERNON         CLEAR     71 -14   3 W5        30.30S
ABILENE        CLEAR     68  12  11 W6        30.34S
ABILENE-DYESS  CLEAR     69  18  14 W6        30.33S
GRAHAM           N/A     70  18  14 CALM      30.29S
BRECKENRIDGE   CLEAR     69  12  11 NW3       30.32S
CISCO          CLEAR     70   9   9 NW7       30.34S
RANGER           N/A     69  17  13 NW3       30.33S
MINERAL WELLS  CLEAR     67  12  12 W5        30.29F
STEPHENVILLE   CLEAR     69  11  10 N3        30.35S
COMANCHE       CLEAR     69  20  15 NW3       30.34R
COLEMAN        CLEAR     69  18  14 W3        30.35R
$$

TXZ143>147-156>162-174-175-110000-
CENTRAL TEXAS

CITY           SKY/WX    TMP DP  RH WIND       PRES   REMARKS
WACO           CLOUDY    66  26  22 SW6       30.32F
WACO-TSTC      CLEAR     68  25  19 S3        30.32F
WACO-MCGREGOR  CLEAR     67  29  24 SW6       30.33S
HILLSBORO      CLEAR     69  22  17 W3        30.30F
CORSICANA      CLEAR     65  25  22 SW7       30.32S
MEXIA          CLOUDY    63  27  25 SW7       30.32S
HEARNE         CLEAR     63  31  30 S6        30.36S
CAMERON        CLEAR     64  31  28 S7        30.34S
TEMPLE         CLEAR     67  26  21 SW5       30.34S
KILLEEN        CLEAR     66  22  18 S6        30.33S
KILLEEN-SKYLRK CLEAR     67  25  20 NW5       30.34S
FORT HOOD      CLEAR     67  21  17 W5        30.30S
GATESVILLE     CLEAR     68  23  18 CALM      30.35R
HAMILTON       CLEAR     68  19  15 NW5       30.34S
LAMPASAS       CLEAR     67  20  16 NW3       30.34R
$$

TXZ095>097-106>112-122>126-135>138-148>153-164>167-110000-
EAST TEXAS

CITY           SKY/WX    TMP DP  RH WIND       PRES   REMARKS
PARIS          CLEAR     62  26  25 SW7       30.25S
SULPHUR SPRNGS CLEAR     64  23  20 SW8       30.30R
MOUNT PLEASANT CLEAR     63  29  27 SW9       30.28S
GILMER         CLEAR     62  26  25 SW5       30.29S
MINEOLA        CLEAR     64  25  22 SW3       30.28S
TYLER          CLEAR     62  25  24 SW6       30.30S
LONGVIEW       CLEAR     62  29  28 SW7       30.29S
MARSHALL       CLEAR     59  26  27 SW5       30.31S
ATHENS         CLEAR     61  23  23 CALM      30.30F
PALESTINE      CLEAR     62  27  27 SW5       30.34S
JACKSONVILLE   CLEAR     61  28  28 SW3       30.33S
HENDERSON      CLEAR     61  26  26 CALM      30.31F
CENTER         CLEAR     59  26  28 SW3       30.32F
NACOGDOCHES    CLEAR     60  30  32 W6        30.33S
LUFKIN         CLEAR     59  33  37 SW5       30.34S
$$

SUPPLEMENTAL OBSERVATIONS (NWS FORT WORTH AREA)

CITY           SKY/WX    TMP DP  RH WIND       PRES   REMARKS
$$

SUPPLEMENTAL OBSERVATIONS (NWS NORMAN AREA)

CITY           SKY/WX    TMP DP  RH WIND       PRES   REMARKS
GOODLETT         N/A     71  11  10 W3        30.30S
ODELL            N/A     71   9   9 NW6       30.30S
CROWELL          N/A     72  12  10 NW5       30.31S
KNOX CITY        N/A     72  16  11 W6        30.31S
SEYMOUR          N/A     71  15  11 SW3       30.31S
$$

SUPPLEMENTAL OBSERVATIONS (NWS SAN ANGELO AREA)

CITY           SKY/WX    TMP DP  RH WIND       PRES   REMARKS
WEINERT          N/A     72  11   9 W6        30.32S
HASKELL          N/A     71  10   9 W6        30.32S
THROCKMORTON     N/A     69  25  18 W7        30.32S
STAMFORD         N/A     69  17  13 W6        30.33F
CLYDE            N/A     69  15  12 W6        30.35S
$$

SUPPLEMENTAL OBSERVATIONS (NWS SHREVEPORT AREA)

CITY           SKY/WX    TMP DP  RH WIND       PRES   REMARKS
$$

SUPPLEMENTAL OBSERVATIONS ARE A COLLECTION OF AUTOMATED INSTRUMENTS
THAT ARE MAINTAINED BY A VARIETY OF FEDERAL AND STATE AGENCIES.
CERTAIN ELEMENTS...SUCH AS HUMIDITY VALUES AND SUSTAINED WIND
SPEEDS...MAY BE APPROXIMATED.




USA.gov is the U.S. government's official web portal to all federal, state and local government web resources and services.